Date String (YYYY-MM-DD hh:mm:ss) UTC,Instrument flags,Ambient pressure (hPa),Sample flow (lpm),Bypass flow (lpm),Sample temperature (°C),Ambient temperature (°C),ASC tube jacket temperature (°C),LED temperature (°C),Box temperature (°C),Sample RH (%),Span deviation,Mass concentration (μg/m³),Mass concentration (μg/m³),Mass concentration (μg/m³)
DateTimeUTC,F1_M11,P_M11,Q1_M11,Q2_M11,T1_M11,T2_M11,T3_M11,T4_M11,T5_M11,U1_M11,ZSPAN_M11,X0_M11,X2_M11,X1_M11
2022-08-08 22:00:00,,0829.5,5.00,0.00,30.1,27.4,00.0,38.7,31.5,34.9,0000.0,0010.35,0004.71,0004.11
2022-08-08 22:01:00,,0829.5,4.99,0.00,30.1,27.3,00.0,38.7,31.5,34.8,0000.0,0010.38,0004.67,0004.11
2022-08-08 22:02:00,,0829.6,5.02,0.00,30.2,27.4,00.0,38.7,31.5,33.5,0000.0,0010.54,0004.61,0004.11
2022-08-08 22:03:00,,0829.6,4.99,0.00,30.2,27.6,00.0,38.7,31.5,32.6,0000.0,0011.73,0004.60,0004.10
2022-08-08 22:04:00,,0829.5,5.00,0.00,30.3,27.8,00.0,38.7,31.6,33.3,0000.0,0011.92,0004.60,0004.11
2022-08-08 22:05:00,,0829.5,5.00,0.00,30.3,28.0,00.0,38.7,31.7,33.0,0000.0,0012.16,0004.57,0004.11
2022-08-08 22:06:00,,0829.6,5.00,0.00,30.3,28.2,00.0,38.7,31.7,32.5,0000.0,0012.14,0004.55,0004.11
2022-08-08 22:07:00,,0829.6,5.00,0.00,30.4,28.4,00.0,38.8,31.8,32.2,0000.0,0012.24,0004.56,0004.11
2022-08-08 22:08:00,,0829.5,5.00,0.00,30.4,28.2,00.0,38.8,31.8,32.1,0000.0,0011.43,0004.54,0004.13
2022-08-08 22:09:00,,0829.5,4.99,0.00,30.4,27.7,00.0,38.8,31.6,32.1,0000.0,0011.47,0004.56,0004.13
2022-08-08 22:10:00,,0829.5,5.01,0.00,30.3,27.4,00.0,38.8,31.6,32.1,0000.0,0010.76,0004.50,0004.13
2022-08-08 22:11:00,,0829.5,5.00,0.00,30.2,27.4,00.0,38.8,31.5,32.2,0000.0,0010.64,0004.53,0004.14
2022-08-08 22:12:00,,0829.6,4.99,0.00,30.1,27.5,00.0,38.7,31.4,33.1,0000.0,0010.92,0004.56,0004.16
2022-08-08 22:13:00,,0829.5,5.01,0.00,30.1,27.7,00.0,38.7,31.4,33.3,0000.0,0010.85,0004.65,0004.17
2022-08-08 22:14:00,,0829.5,5.00,0.00,30.1,27.9,00.0,38.7,31.5,33.0,0000.0,0009.81,0004.67,0004.18
2022-08-08 22:15:00,,0829.5,4.99,0.00,30.1,28.1,00.0,38.7,31.7,33.1,0000.0,0009.43,0004.68,0004.19
2022-08-08 22:16:00,,0829.5,5.00,0.00,30.1,28.3,00.0,38.8,31.7,33.1,0000.0,0009.07,0004.68,0004.20
2022-08-08 22:17:00,,0829.5,4.99,0.00,30.2,28.2,00.0,38.7,31.7,32.7,0000.0,0009.01,0004.67,0004.21
2022-08-08 22:18:00,,0829.4,5.01,0.00,30.1,27.7,00.0,38.7,31.5,32.5,0000.0,0008.94,0004.68,0004.22
2022-08-08 22:19:00,,0829.4,4.98,0.00,30.1,27.3,00.0,38.7,31.4,32.7,0000.0,0009.06,0004.72,0004.24
2022-08-08 22:20:00,,0829.4,5.01,0.00,30.0,27.3,00.0,38.7,31.4,32.8,0000.0,0009.22,0004.76,0004.26
2022-08-08 22:21:00,,0829.4,4.99,0.00,29.9,27.4,00.0,38.6,31.4,32.5,0000.0,0009.39,0004.82,0004.29
2022-08-08 22:22:00,,0829.4,4.99,0.00,29.9,27.6,00.0,38.6,31.4,31.9,0000.0,0009.90,0004.86,0004.31
2022-08-08 22:23:00,,0829.4,5.01,0.00,29.9,27.9,00.0,38.6,31.5,33.0,0000.0,0009.28,0004.89,0004.33
2022-08-08 22:24:00,,0829.4,5.00,0.00,29.9,28.1,00.0,38.6,31.6,33.3,0000.0,0009.52,0004.90,0004.36
2022-08-08 22:25:00,,0829.5,5.00,0.00,30.0,28.3,00.0,38.6,31.7,34.1,0000.0,0009.83,0004.93,0004.40
2022-08-08 22:26:00,,0829.5,5.00,0.00,30.0,28.4,00.0,38.6,31.7,33.2,0000.0,0009.76,0004.95,0004.43
2022-08-08 22:27:00,,0829.3,5.00,0.00,30.0,28.1,00.0,38.6,31.6,33.2,0000.0,0009.98,0005.01,0004.44
2022-08-08 22:28:00,,0829.3,5.01,0.00,30.0,27.5,00.0,38.6,31.5,33.4,0000.0,0010.14,0005.05,0004.45
2022-08-08 22:29:00,,0829.3,5.00,0.00,29.9,27.4,00.0,38.6,31.4,33.6,0000.0,0010.22,0005.09,0004.47
2022-08-08 22:30:00,,0829.2,4.99,0.00,29.8,27.4,00.0,38.6,31.4,33.6,0000.0,0010.29,0005.10,0004.48
2022-08-08 22:31:00,,0829.2,5.01,0.00,29.8,27.6,00.0,38.5,31.4,33.8,0000.0,0010.18,0005.10,0004.48
2022-08-08 22:32:00,,0829.2,5.00,0.00,29.8,27.8,00.0,38.5,31.4,34.4,0000.0,0010.15,0005.11,0004.48
2022-08-08 22:33:00,,0829.3,5.00,0.00,29.8,28.0,00.0,38.5,31.5,33.9,0000.0,0009.74,0005.11,0004.48
2022-08-08 22:34:00,,0829.2,5.01,0.00,29.9,28.2,00.0,38.5,31.6,32.8,0000.0,0009.40,0005.09,0004.48
2022-08-08 22:35:00,,0829.2,4.99,0.00,30.0,28.4,00.0,38.6,31.7,32.5,0000.0,0009.08,0005.08,0004.48
2022-08-08 22:36:00,,0829.2,5.01,0.00,30.0,28.0,00.0,38.6,31.6,32.7,0000.0,0009.12,0005.11,0004.48
2022-08-08 22:37:00,,0829.2,4.99,0.00,29.9,27.5,00.0,38.5,31.4,33.1,0000.0,0009.15,0005.12,0004.48
2022-08-08 22:38:00,,0829.2,5.00,0.00,29.9,27.3,00.0,38.5,31.4,33.8,0000.0,0009.04,0005.12,0004.49
2022-08-08 22:39:00,,0829.3,5.00,0.00,29.8,27.4,00.0,38.5,31.3,33.2,0000.0,0009.03,0005.12,0004.51
2022-08-08 22:40:00,,0829.3,5.00,0.00,29.8,27.5,00.0,38.5,31.3,32.6,0000.0,0009.09,0005.15,0004.52
2022-08-08 22:41:00,,0829.3,5.00,0.00,29.8,27.8,00.0,38.5,31.4,33.0,0000.0,0009.27,0005.13,0004.52
2022-08-08 22:42:00,,0829.3,5.00,0.00,29.8,28.0,00.0,38.5,31.5,32.6,0000.0,0009.50,0005.13,0004.52
2022-08-08 22:43:00,,0829.2,4.99,0.00,29.8,28.2,00.0,38.5,31.6,33.3,0000.0,0009.56,0005.11,0004.51
2022-08-08 22:44:00,,0829.3,5.00,0.00,29.9,28.3,00.0,38.5,31.6,32.6,0000.0,0009.53,0005.11,0004.51
2022-08-08 22:45:00,,0829.3,5.01,0.00,29.9,28.1,00.0,38.5,31.6,33.5,0000.0,0009.62,0005.12,0004.50
2022-08-08 22:46:00,,0829.2,4.99,0.00,29.8,27.5,00.0,38.5,31.4,33.0,0000.0,0009.77,0005.13,0004.49
2022-08-08 22:47:00,,0829.3,5.00,0.00,29.8,27.3,00.0,38.4,31.4,32.5,0000.0,0009.48,0005.12,0004.49
2022-08-08 22:48:00,,0829.3,5.01,0.00,29.7,27.3,00.0,38.4,31.3,32.9,0000.0,0009.32,0005.08,0004.49
2022-08-08 22:49:00,,0829.3,5.00,0.00,29.6,27.5,00.0,38.4,31.3,33.4,0000.0,0009.34,0005.07,0004.47
2022-08-08 22:50:00,,0829.2,4.99,0.00,29.7,27.7,00.0,38.4,31.4,33.4,0000.0,0009.33,0005.05,0004.43
2022-08-08 22:51:00,,0829.2,5.01,0.00,29.7,27.9,00.0,38.4,31.4,32.3,0000.0,0009.33,0005.00,0004.38
2022-08-08 22:52:00,,0829.3,4.99,0.00,29.7,28.1,00.0,38.4,31.5,32.3,0000.0,0009.69,0004.98,0004.34
2022-08-08 22:53:00,,0829.2,5.00,0.00,29.7,28.3,00.0,38.4,31.6,31.1,0000.0,0010.37,0004.99,0004.33
2022-08-08 22:54:00,,0829.2,4.99,0.00,29.8,28.4,00.0,38.5,31.7,29.6,0000.0,0010.34,0004.95,0004.30
2022-08-08 22:55:00,,0829.1,5.00,0.00,29.8,27.9,00.0,38.4,31.5,30.0,0000.0,0010.32,0004.91,0004.27
2022-08-08 22:56:00,,0829.2,5.00,0.00,29.7,27.5,00.0,38.4,31.4,31.4,0000.0,0010.25,0004.86,0004.23
2022-08-08 22:57:00,,0829.2,5.01,0.00,29.7,27.4,00.0,38.4,31.4,32.0,0000.0,0010.10,0004.81,0004.20
2022-08-08 22:58:00,,0829.2,4.99,0.00,29.6,27.5,00.0,38.4,31.3,32.0,0000.0,0010.05,0004.79,0004.17
2022-08-08 22:59:00,,0829.1,5.01,0.00,29.6,27.6,00.0,38.4,31.3,31.5,0000.0,0010.08,0004.79,0004.15
